Location: ?????
(42.2640°N, 43.4211°E)
Time: 15:02:18
(UTC+00:00)

Cosmos 2112 Rocket - Pass Details

Date: 07 August 2020
Orbit: 757 x 786 km, 74.0° (Epoch: 19 September)

Event Time Altitude Azimuth Distance (km) Brightness Sun altitude
Rises 00:14:45 0° 335° (NNW) 3,241 7.5 -17.9°
Reaches altitude 10° 00:17:10 10° 331° (NNW) 2,306 6.6 -17.6°
Maximum altitude 00:22:14 53° 256° (WSW) 931 4.1 -16.9°
Enters shadow 00:26:19 15° 183° (S) 1,933 5.7 -16.3°
